Mc Call Municipal Airport Mc Call US
ICAO: KMYL
IATA: MYL
Category: Medium
Scheduled Services: No

Elevation: 5024 ft
TransAlt. 18000 ft.

Airport Communications:
ASOS:119.925
SALT LAKE CITY CNTR:128.05
BOISE RDO:122.35
CTAF/UNICOM:122.8

KMYL Zoom In..

If you have problems with the map follow the link
https://www.worldairports.se/pages/airport.php?
ICAO=KMYL

Runways:

(A) RW 16 length 6108 ft width 75 ft
---- / hdg 162

(B) RW 34 length 6108 ft width 75 ft
---- / hdg 342

Location; KMYL
Day. 14 / Time. 21.51 Zulu
* Altimeter: 29.96
* Temperature: 01° c. 33.8°f.
* Wind from: 000° Speed 00 kn.
Dewpoint: -07° c.
Visibility: 10 Statute Miles.
Clouds: Broken 8500 ft.
Clouds: Overcast 11000 ft.

KMYL 142151Z AUTO 00000KT 10SM BKN085 OVC110 01/M07 A2996 RMK AO2 SLP198 T00061067


Wind - Calm.

 
 
jpsmedia.com for Web Design worldairports.se 2018   terms of use